Powrót do katalogu

NOAA 16 DEB

AktywnySSO
NORAD 41511·DEBRIS·🇺🇸 United States

Wystrzelony Sep 21, 2000 z Vandenberg Space Force Base

Loading…

Następne Przeloty (najbliższe 24 godziny)

TLE

ŚwieżeSource: Space-Track

Epoka: Sep 14, 2026, 09:11 UTC

1 41511U 00055MK  26257.38270888  .00001779  00000-0  80222-3 0  9999
2 41511  98.6826 312.5337 0024502 208.8486 151.1339 14.23305206540611

Śledź NOAA 16 DEB w czasie rzeczywistym z AllMySat

Download on the App Store